Regional Weather Roundup
Issued by NWS San Angelo, TX

Home | Current Version | Previous Version | Text Only | Print | Product List | Glossary On
Versions: 1 2 3 4 5 6 7 8 9 10 11 12 13 14 15 16 17 18 19 20 21 22 23 24 25 26 27 28 29 30 31 32 33 34 35 36 37 38 39 40 41 42 43 44 45 46 47 48 49 50
000
ASUS44 KSJT 221310
RWRSJT
WEST CENTRAL TEXAS REGIONAL WEATHER ROUNDUP
NATIONAL WEATHER SERVICE SAN ANGELO TX
800 AM CDT SUN OCT 22 2017

NOTE: "FAIR" INDICATES FEW OR NO CLOUDS BELOW 12,000 FEET WITH NO
SIGNIFICANT WEATHER AND/OR OBSTRUCTIONS TO VISIBILITY.

TXZ049-054-064>066-071>073-076>078-098-099-113-114-127-128-139-140-
154-155-168>170-221400
...LOCATIONS ACROSS WEST CENTRAL TEXAS...

CITY           SKY/WX    TMP DP  RH WIND       PRES   REMARKS
SAN ANGELO     CLEAR     51  41  68 NW7       30.21R
ABILENE        CLEAR     47  43  86 NW8       30.21R
DYESS AFB      CLEAR     48  41  78 NW9       30.22R
JUNCTION       CLEAR     58  51  78 NE5       30.17R
SWEETWATER     CLEAR     48  37  66 NW8       30.26R
BROWNWOOD      NOT AVBL
COLEMAN        SUNNY     53  45  74 N12       30.18R
SONORA         CLEAR     54  48  82 N6        30.23R
OZONA          FAIR      50  43  76 N8        30.24R
BRADY          NOT AVBL
$$

TEXAS PANHANDLE/OKLAHOMA PANHANDLE

CITY           SKY/WX    TMP DP  RH WIND       PRES   REMARKS
AMARILLO       CLEAR     36  29  75 W7        30.29R WCI  30
BORGER         CLEAR     39  28  64 W6        30.28S WCI  35
CANADIAN       CLEAR     34  32  92 CALM      30.26S
DALHART        CLEAR     35  23  61 W8        30.30R WCI  29
DUMAS          SUNNY     32  23  70 W7        30.27S WCI  25
GUYMON         NOT AVBL
HEREFORD       SUNNY     36  32  84 CALM      30.31S
PAMPA          SUNNY     35  30  82 W7        30.27F WCI  30
PERRYTON       CLEAR     34  27  74 W7        30.24S WCI  28
$$

SOUTHERN PANHANDLE/SOUTH PLAINS/ROLLING PLAINS

CITY           SKY/WX    TMP DP  RH WIND       PRES   REMARKS
LUBBOCK        CLEAR     39  34  82 N8        30.28R WCI  33
SNYDER         PTCLDY    48  34  57 N9        30.25R
CHILDRESS      CLEAR     44  37  76 NW6       30.26R
SEMINOLE       SUNNY     41  34  75 NW8       30.30R WCI  36
$$

PERMIAN BASIN

CITY           SKY/WX    TMP DP  RH WIND       PRES   REMARKS
MIDLAND        CLEAR     45  36  70 N12       30.25R WCI  39
ODESSA         NOT AVBL
WINK           CLEAR     43  35  73 NW3       30.28R
$$

FAR WEST/SOUTHWEST MOUNTAINS/TRANS PECOS

CITY           SKY/WX    TMP DP  RH WIND       PRES   REMARKS
ALPINE         SUNNY     43  31  63 NW3       30.37R
DRYDEN           N/A     59  43  55 N9        30.21R
EL PASO        CLEAR     55  20  25 N10       30.28R
FORT STOCKTON  CLEAR     48  40  73 W7        30.29R
GUADALUPE PASS NOT AVBL
MARFA          CLEAR     51  30  44 N12       30.32R
PECOS          SUNNY     46  40  79 W6        30.30R
$$

DALLAS/FORT WORTH METROPLEX

CITY           SKY/WX    TMP DP  RH WIND       PRES   REMARKS
DFW AIRPORT    CLOUDY    64  61  90 N9        30.08R
FTW MEACHAM    CLOUDY    62  60  93 NW9       30.10R
DAL-EXECUTIVE  CLOUDY    62  61  96 W6        30.08R
GRAND PRAIRIE  PTCLDY    63  63 100 W5        30.10R
ADDISON        CLOUDY    61  59  94 NW7       30.09R
MESQUITE       PTSUNNY   63  61  94 CALM      30.08R
LANCASTER      CLOUDY    61  60  96 CALM      30.09R
$$

NORTH CENTRAL TEXAS

CITY           SKY/WX    TMP DP  RH WIND       PRES   REMARKS
SHRMAN/DENISON CLOUDY    58  58  99 NW3       30.09S
GAINESVILLE    MOCLDY    58  56  92 N9        30.13R
BRIDGEPORT     CLOUDY    59  57  94 N10       30.16R
DENTON         MOCLDY    61  60  97 NW7       30.11R
WAXAHACHIE     CLOUDY    61  61 100 CALM      30.11R
GRANBURY       CLOUDY    60  57  89 NW7       30.14R
$$

WESTERN NORTH TEXAS

CITY           SKY/WX    TMP DP  RH WIND       PRES   REMARKS
WICHITA FALLS  CLEAR     52  48  86 N10       30.17R
VERNON         SUNNY     49  40  69 NW9       30.22R
BRECKENRIDGE   SUNNY     54  48  82 N5        30.19R HAZE
COMANCHE       CLOUDY    56  56  99 N13       30.16R
$$

CENTRAL AND SOUTH CENTRAL TEXAS

CITY           SKY/WX    TMP DP  RH WIND       PRES   REMARKS
AUSTIN/BERGSTM TSTM      64  64 100 NW12G25   30.08R VSB 3/4
WACO           CLOUDY    62  60  93 N6        30.10R
HILLSBORO      CLOUDY    62  61  97 NW3       30.11R
TEMPLE         CLOUDY    61  60  97 N7        30.10R
KILLEEN-GRAY   CLOUDY    61  59  94 N10       30.09S
FORT HOOD      CLOUDY    60  59  96 N9        30.07R THUNDER FOG
GEORGETOWN     CLOUDY    63  61  94 N12G18    30.11R
LAGO VISTA     PTSUNNY   62  60  95 N9G21     30.11R
SAN MARCOS     CLOUDY    70  63  78 N23G32    30.07R
NEW BRAUNFELS  MOCLDY    75  73  93 NW7       30.02R
RANDOLPH AFB   MOCLDY    75  72  88 W5        30.04R
SAN ANTONIO    CLOUDY    75  71  87 W8        30.04R
STINSON        CLOUDY    74  73  97 NW3       30.01R
PLEASANTON     NOT AVBL
LA GRANGE      CLOUDY    77  76  96 N20G28    30.02R
GIDDINGS       HVY RAIN  62  60  93 N13G23    30.06R
$$

EAST TEXAS

CITY           SKY/WX    TMP DP  RH WIND       PRES   REMARKS
PARIS          CLOUDY    58  58 100 NE16      29.95F
CLARKSVILLE    NOT AVBL
TYLER          LGT RAIN  60  59  96 E18G29    30.00F
LONGVIEW       TSTM      61  61 100 E5        30.11S FOG
PALESTINE      LGT RAIN  61  60  99 E15       30.06F
NACOGDOCHES    RAIN      60  59  96 VRB7      30.14R
$$

TEXAS HILL COUNTRY AND EDWARDS PLATEAU

CITY           SKY/WX    TMP DP  RH WIND       PRES   REMARKS
LLANO          MOSUNNY   59  55  88 W3        30.17R
HORSESHOE BAY  CLOUDY    62  61  97 NW7       30.12R
KERRVILLE      CLOUDY    61  57  87 N16G23    30.12R
FREDERICKSBRG  CLOUDY    58  54  85 N8        30.14R
ROCKSPRINGS    NOT AVBL
HONDO          CLOUDY    75  72  90 NW6       30.04R
UVALDE         FOG       72  72  99 CALM      30.06R VSB 3/4
DEL RIO        CLOUDY    67  66  97 N7        30.07R
$$

SOUTHEAST TEXAS

CITY           SKY/WX    TMP DP  RH WIND       PRES   REMARKS
COLLEGE STN    TSTM      62  61  96 NE12      30.08R FOG
CALDWELL       TSTM      61  60  97 NE6       30.07S FOG
CROCKETT       LGT RAIN  59  59 100 E9        30.15R
BRENHAM        TSTM      63  62  98 NE8G18    30.09R
HUNTSVILLE     HVY RAIN  61  59  93 E8        30.11R FOG
CONROE         HVY RAIN  61  61 100 N14G21    30.09R VSB 1
HOUSTON BUSH   TSTM      63  62  97 N24G33    30.07R
HOUSTON HOBBY  PTCLDY    76  73  91 CALM      30.00R
PERLAND        PTCLDY    75  71  87 CALM      30.01R
WHARTON        FOG       71  70  98 CALM      29.99S VSB 1/4
$$

THE UPPER TEXAS COAST

CITY           SKY/WX    TMP DP  RH WIND       PRES   REMARKS
ORANGE         PTSUNNY   74  74 100 N6        30.04R FOG
PORT ARTHUR    MOCLDY    74  74 100 NW6       30.01S FOG
GALVESTON      CLEAR     77  76  96 CALM      30.00S
ANGLETON       PTCLDY    73  72  96 CALM      29.99S
BAY CITY       CLOUDY    74  74 100 E3        29.98S FOG
$$

TEXAS COASTAL BEND, RIO GRANDE PLAINS DEEP SOUTH TEXAS

CITY           SKY/WX    TMP DP  RH WIND       PRES   REMARKS
VICTORIA       FOG       71  69  93 NW5       29.99S VSB<1/4
BEEVILLE       PTSUNNY   71  71 100 CALM      29.99S FOG
ROCKPORT       PTCLDY    76  75  97 NW5       29.97S FOG
PORT ARANSAS   NOT AVBL
PORT LAVACA    SUNNY     74  72  93 CALM      29.98S FOG
CORPUS CHRISTI FOG       72  72 100 CALM      29.98R VSB 1/8
KINGSVILLE NAS FOG       74  74 100 CALM      29.98R VSB 0
COTULLA        CLEAR     71  69  93 CALM      30.01R FOG
LAREDO         CLOUDY    73  71  93 N3        30.01R
BROWNSVILLE    PTCLDY    76  75  97 E3        29.97S FOG
PORT ISABEL    PTCLDY    75  75 100 SE3       29.96S FOG
HEBBRONVILLE   CLOUDY    73  72  97 CALM      30.01S FOG
MCALLEN        FOG       78  76  93 S5        29.97R VSB 1/4
WESLACO        FOG       72  71  97 CALM      29.95S VSB 1
FALFURRIAS     CLOUDY    74  73  96 CALM      29.98R
EDINBURG       FOG       76  74  93 CALM      29.98R VSB 1/2
$$




USA.gov is the U.S. government's official web portal to all federal, state and local government web resources and services.